Location: Rumah Dana
(3.1167°N, 113.0167°E)
Time: 04:55:54
(UTC+00:00)

CZ-4 R/B - Pass Details

Date: 20 January 2026
Orbit: 547 x 553 km, 97.6° (Epoch: 11 February)

Event Time Altitude Azimuth Distance (km) Brightness Sun altitude
Rises 11:03:26 0° 170° (S) 2,715 8.0 -6.8°
Reaches altitude 10° 11:05:33 10° 170° (S) 1,821 7.1 -7.3°
Maximum altitude 11:09:29 85° 257° (WSW) 555 4.4 -8.2°
Drops below altitude 10° 11:13:26 10° 347° (NNW) 1,818 6.9 -9.2°
Sets 11:15:33 0° 348° (NNW) 2,711 7.8 -9.7°
